Location: Antioch Baptist Church
(32.6696°N, 85.7327°W)
Time: 12:26:40
(UTC+00:00)

OAO 3 Copernicus - Pass Details

Date: 14 July 2020
Orbit: 695 x 704 km, 35.0° (Epoch: 08 August)

Event Time Altitude Azimuth Distance (km) Brightness Sun altitude
Rises 03:08:48 0° 280° (W) 3,080 8.4 -23.6°
Reaches altitude 10° 03:11:13 10° 282° (WNW) 2,160 7.5 -23.9°
Maximum altitude 03:16:16 71° 7° (N) 738 4.4 -24.6°
Enters shadow 03:17:09 58° 64° (ENE) 816 4.5 -24.7°
